| time (UTC) | temp C | wind direction | speed KPH | gust KPH | rain 1hr cm | rain 24hr cm | rain mn cm | humidity % | barometer mb |
| 20260905024555 | 23 | 245 | 0.0 | 0.0 | 0.00 | 0.56 | 0.56 | 95 | 1015.0 |
| 20260905024053 | 23 | 246 | 0.0 | 0.0 | 0.00 | 0.56 | 0.56 | 95 | 1015.0 |
| 20260905023554 | 23 | 245 | 0.0 | 0.0 | 0.00 | 0.56 | 0.56 | 94 | 1015.0 |
| 20260905023052 | 23 | 245 | 0.0 | 0.0 | 0.00 | 0.56 | 0.56 | 94 | 1015.0 |
| 20260905022551 | 23 | 245 | 0.0 | 0.0 | 0.00 | 0.56 | 0.56 | 94 | 1015.0 |
| 20260905022052 | 23 | 245 | 0.0 | 0.0 | 0.00 | 0.56 | 0.56 | 94 | 1015.0 |
| 20260905021550 | 23 | 245 | 0.0 | 0.0 | 0.00 | 0.56 | 0.56 | 94 | 1015.1 |
| 20260905021048 | 23 | 245 | 0.0 | 0.0 | 0.00 | 0.56 | 0.56 | 94 | 1015.1 |
| 20260905020551 | 23 | 245 | 0.0 | 0.0 | 0.00 | 0.56 | 0.56 | 94 | 1015.0 |
| 20260905020100 | 23 | 245 | 0.0 | 0.0 | 0.00 | 0.56 | 0.56 | 94 | 1015.0 |
| 20260905015548 | 23 | 245 | 0.0 | 0.0 | 0.00 | 0.56 | 0.56 | 94 | 1015.0 |
| 20260905015047 | 23 | 245 | 0.0 | 1.6 | 0.00 | 0.56 | 0.56 | 94 | 1014.9 |
| 20260905014548 | 23 | 245 | 0.0 | 1.6 | 0.00 | 0.56 | 0.56 | 94 | 1015.0 |
| 20260905014047 | 23 | 261 | 0.0 | 0.0 | 0.00 | 0.56 | 0.56 | 94 | 1015.1 |
| 20260905013545 | 23 | 157 | 0.0 | 0.0 | 0.00 | 0.56 | 0.56 | 94 | 1015.0 |
| 20260905013044 | 23 | 261 | 0.0 | 0.0 | 0.00 | 0.56 | 0.56 | 94 | 1015.0 |
| 20260905012543 | 23 | 261 | 0.0 | 0.0 | 0.00 | 0.56 | 0.56 | 94 | 1015.1 |
| 20260905012043 | 23 | 314 | 0.0 | 0.0 | 0.00 | 0.56 | 0.56 | 94 | 1015.1 |
| 20260905011542 | 23 | 354 | 0.0 | 1.6 | 0.00 | 0.56 | 0.56 | 94 | 1015.1 |
| 20260905011041 | 23 | 266 | 0.0 | 3.2 | 0.00 | 0.56 | 0.56 | 94 | 1014.9 |
| 20260905010541 | 23 | 269 | 0.0 | 3.2 | 0.00 | 0.56 | 0.56 | 93 | 1014.9 |
| 20260905010040 | 23 | 227 | 0.0 | 0.0 | 0.00 | 0.56 | 0.56 | 94 | 1014.8 |
| 20260905005537 | 23 | 60 | 0.0 | 0.0 | 0.00 | 0.56 | 0.56 | 94 | 1014.8 |
| 20260905005038 | 23 | 53 | 0.0 | 0.0 | 0.00 | 0.56 | 0.56 | 94 | 1014.8 |
| 20260905004541 | 23 | 53 | 0.0 | 1.6 | 0.00 | 0.56 | 0.56 | 94 | 1014.6 |
| 20260905004035 | 24 | 108 | 0.0 | 1.6 | 0.00 | 0.56 | 0.56 | 93 | 1014.5 |
| 20260905003535 | 24 | 110 | 0.0 | 1.6 | 0.00 | 0.56 | 0.56 | 93 | 1014.5 |
| 20260905003035 | 24 | 274 | 0.0 | 1.6 | 0.00 | 0.56 | 0.56 | 93 | 1014.5 |
| 20260905002534 | 24 | 298 | 0.0 | 0.0 | 0.00 | 0.56 | 0.56 | 93 | 1014.4 |
| 20260905002034 | 25 | 158 | 0.0 | 0.0 | 0.00 | 0.56 | 0.56 | 93 | 1014.3 |
| 20260905001534 | 25 | 158 | 0.0 | 1.6 | 0.00 | 0.56 | 0.56 | 93 | 1014.4 |
| 20260905001036 | 25 | 287 | 0.0 | 1.6 | 0.00 | 0.56 | 0.56 | 93 | 1014.5 |
| 20260905000532 | 25 | 283 | 0.0 | 1.6 | 0.00 | 0.56 | 0.56 | 93 | 1014.4 |
| 20260905000031 | 26 | 37 | 0.0 | 1.6 | 0.00 | 0.56 | 0.56 | 93 | 1014.4 |
| 20260904235531 | 26 | 120 | 0.0 | 1.6 | 0.00 | 0.56 | 0.56 | 94 | 1014.1 |
| 20260904235031 | 26 | 159 | 0.0 | 0.0 | 0.00 | 0.56 | 0.56 | 95 | 1014.2 |
| 20260904234529 | 26 | 245 | 0.0 | 0.0 | 0.00 | 0.56 | 0.56 | 95 | 1014.0 |
| 20260904234029 | 26 | 245 | 0.0 | 0.0 | 0.00 | 0.56 | 0.56 | 95 | 1014.1 |
| 20260904233528 | 26 | 245 | 0.0 | 0.0 | 0.00 | 0.56 | 0.56 | 94 | 1014.1 |
| 20260904233028 | 26 | 245 | 0.0 | 0.0 | 0.00 | 0.56 | 0.56 | 94 | 1014.1 |
| 20260904232528 | 26 | 245 | 0.0 | 0.0 | 0.00 | 0.56 | 0.56 | 94 | 1014.0 |
| 20260904232026 | 27 | 245 | 0.0 | 0.0 | 0.00 | 0.56 | 0.56 | 94 | 1014.0 |
| 20260904231528 | 27 | 245 | 0.0 | 0.0 | 0.00 | 0.56 | 0.56 | 94 | 1014.0 |
| 20260904231026 | 27 | 245 | 0.0 | 0.0 | 0.00 | 0.56 | 0.56 | 94 | 1014.2 |
| 20260904230525 | 27 | 245 | 0.0 | 0.0 | 0.03 | 0.56 | 0.56 | 94 | 1014.2 |
| 20260904230024 | 27 | 245 | 0.0 | 0.0 | 0.03 | 0.56 | 0.56 | 94 | 1014.2 |
| 20260904225523 | 27 | 245 | 0.0 | 0.0 | 0.03 | 0.56 | 0.56 | 94 | 1014.2 |
| 20260904225022 | 27 | 245 | 0.0 | 0.0 | 0.05 | 0.56 | 0.56 | 94 | 1014.0 |
| 20260904224524 | 27 | 245 | 0.0 | 0.0 | 0.05 | 0.56 | 0.56 | 94 | 1014.1 |
| 20260904224024 | 27 | 245 | 0.0 | 0.0 | 0.05 | 0.56 | 0.56 | 94 | 1014.1 |
| 20260904223521 | 27 | 245 | 0.0 | 0.0 | 0.05 | 0.56 | 0.56 | 94 | 1014.3 |
| 20260904223025 | 27 | 245 | 0.0 | 0.0 | 0.08 | 0.56 | 0.56 | 94 | 1014.3 |
| 20260904222522 | 27 | 245 | 0.0 | 0.0 | 0.08 | 0.56 | 0.56 | 94 | 1014.3 |
| 20260904222019 | 27 | 245 | 0.0 | 0.0 | 0.08 | 0.56 | 0.56 | 94 | 1014.2 |
| 20260904221519 | 27 | 245 | 0.0 | 0.0 | 0.10 | 0.56 | 0.56 | 94 | 1013.9 |
| 20260904221018 | 27 | 245 | 0.0 | 0.0 | 0.08 | 0.53 | 0.53 | 94 | 1014.0 |
| 20260904220518 | 27 | 245 | 0.0 | 0.0 | 0.08 | 0.53 | 0.53 | 94 | 1014.1 |
| 20260904220023 | 27 | 245 | 0.0 | 0.0 | 0.10 | 0.53 | 0.53 | 94 | 1014.2 |
| 20260904215516 | 27 | 245 | 0.0 | 0.0 | 0.08 | 0.51 | 0.51 | 94 | 1014.4 |
| 20260904215017 | 27 | 245 | 0.0 | 0.0 | 0.08 | 0.51 | 0.51 | 94 | 1014.3 |
| 20260904214516 | 27 | 245 | 0.0 | 0.0 | 0.10 | 0.51 | 0.51 | 94 | 1014.2 |
| 20260904214015 | 27 | 245 | 0.0 | 0.0 | 0.10 | 0.51 | 0.51 | 94 | 1014.1 |
| 20260904213518 | 27 | 245 | 0.0 | 0.0 | 0.08 | 0.48 | 0.48 | 94 | 1014.0 |
| 20260904213025 | 27 | 245 | 0.0 | 0.0 | 0.08 | 0.48 | 0.48 | 94 | 1013.9 |
| 20260904212513 | 26 | 245 | 0.0 | 0.0 | 0.08 | 0.48 | 0.48 | 94 | 1014.2 |
| 20260904212013 | 27 | 243 | 0.0 | 0.0 | 0.05 | 0.46 | 0.46 | 94 | 1014.3 |
| 20260904211512 | 27 | 174 | 0.0 | 0.0 | 0.05 | 0.46 | 0.46 | 94 | 1014.0 |
| 20260904211014 | 27 | 174 | 0.0 | 0.0 | 0.08 | 0.46 | 0.46 | 94 | 1013.8 |
| 20260904210511 | 27 | 175 | 0.0 | 0.0 | 0.05 | 0.43 | 0.43 | 94 | 1013.7 |
| 20260904210024 | 26 | 175 | 0.0 | 0.0 | 0.05 | 0.43 | 0.43 | 94 | 1013.8 |
| 20260904205514 | 26 | 175 | 0.0 | 0.0 | 0.08 | 0.43 | 0.43 | 94 | 1013.6 |
| 20260904205011 | 26 | 144 | 0.0 | 0.0 | 0.08 | 0.43 | 0.43 | 94 | 1013.6 |
| 20260904204509 | 26 | 146 | 0.0 | 0.0 | 0.08 | 0.41 | 0.41 | 94 | 1013.7 |
| 20260904204008 | 26 | 146 | 0.0 | 0.0 | 0.13 | 0.41 | 0.41 | 94 | 1013.7 |
| 20260904203508 | 26 | 146 | 0.0 | 0.0 | 0.20 | 0.41 | 0.41 | 93 | 1013.6 |
| 20260904203007 | 26 | 146 | 0.0 | 0.0 | 0.36 | 0.41 | 0.41 | 93 | 1013.6 |
| 20260904202505 | 26 | 326 | 0.0 | 0.0 | 0.41 | 0.41 | 0.41 | 93 | 1013.7 |
| 20260904202005 | 26 | 324 | 0.0 | 0.0 | 0.41 | 0.41 | 0.41 | 93 | 1013.9 |
| 20260904201505 | 26 | 324 | 0.0 | 0.0 | 0.41 | 0.41 | 0.41 | 92 | 1013.6 |
| 20260904201005 | 26 | 324 | 0.0 | 0.0 | 0.38 | 0.38 | 0.38 | 92 | 1013.6 |
| 20260904200502 | 26 | 326 | 0.0 | 1.6 | 0.38 | 0.38 | 0.38 | 91 | 1013.9 |
| 20260904200002 | 26 | 326 | 0.0 | 3.2 | 0.38 | 0.48 | 0.38 | 90 | 1014.2 |
| 20260904195502 | 26 | 87 | 0.0 | 3.2 | 0.36 | 0.46 | 0.36 | 89 | 1014.3 |
| 20260904195002 | 26 | 358 | 0.0 | 1.6 | 0.36 | 0.46 | 0.36 | 90 | 1014.4 |
| 20260904194501 | 27 | 161 | 0.0 | 0.0 | 0.30 | 0.41 | 0.30 | 90 | 1014.6 |
| 20260904194100 | 27 | 309 | 0.0 | 0.0 | 0.28 | 0.38 | 0.28 | 89 | 1014.6 |
| 20260904193602 | 28 | 349 | 0.0 | 0.0 | 0.23 | 0.33 | 0.23 | 89 | 1014.7 |
| 20260904193059 | 28 | 3 | 0.0 | 0.0 | 0.10 | 0.20 | 0.10 | 87 | 1014.7 |
| 20260904192559 | 28 | 228 | 0.0 | 1.6 | 0.00 | 0.10 | 0.00 | 87 | 1014.7 |
| 20260904192057 | 29 | 189 | 0.0 | 1.6 | 0.00 | 0.10 | 0.00 | 86 | 1014.5 |
| 20260904191557 | 29 | 194 | 0.0 | 1.6 | 0.00 | 0.10 | 0.00 | 86 | 1014.3 |
| 20260904191056 | 29 | 158 | 0.0 | 4.8 | 0.00 | 0.10 | 0.00 | 86 | 1014.3 |
| 20260904190556 | 30 | 110 | 0.0 | 8.0 | 0.00 | 0.10 | 0.00 | 85 | 1014.5 |
| 20260904190057 | 30 | 208 | 0.0 | 8.0 | 0.00 | 0.10 | 0.00 | 85 | 1014.4 |
| 20260904185554 | 30 | 311 | 0.0 | 4.8 | 0.00 | 0.10 | 0.00 | 84 | 1014.4 |
| 20260904185053 | 31 | 136 | 0.0 | 4.8 | 0.00 | 0.10 | 0.00 | 84 | 1014.5 |
| 20260904184553 | 30 | 176 | 0.0 | 1.6 | 0.00 | 0.10 | 0.00 | 86 | 1014.5 |
| 20260904184053 | 30 | 156 | 0.0 | 4.8 | 0.00 | 0.10 | 0.00 | 85 | 1014.5 |
| 20260904183552 | 30 | 153 | 0.0 | 6.4 | 0.00 | 0.10 | 0.00 | 85 | 1014.5 |
| 20260904183052 | 31 | 311 | 0.0 | 6.4 | 0.00 | 0.10 | 0.00 | 84 | 1014.6 |
| 20260904182551 | 31 | 309 | 0.0 | 9.7 | 0.00 | 0.10 | 0.00 | 83 | 1014.7 |
| 20260904182050 | 31 | 347 | 0.0 | 9.7 | 0.00 | 0.10 | 0.00 | 82 | 1014.8 |
| 20260904181554 | 31 | 322 | 0.0 | 4.8 | 0.00 | 0.10 | 0.00 | 82 | 1014.8 |
| 20260904181048 | 32 | 169 | 0.0 | 6.4 | 0.00 | 0.10 | 0.00 | 81 | 1014.9 |
| 20260904180550 | 32 | 30 | 1.6 | 6.4 | 0.00 | 0.10 | 0.00 | 77 | 1014.8 |
| 20260904180047 | 33 | 93 | 0.0 | 3.2 | 0.00 | 0.10 | 0.00 | 72 | 1014.6 |
| 20260904175544 | 33 | 70 | 0.0 | 4.8 | 0.00 | 0.10 | 0.00 | 73 | 1014.6 |
| 20260904175043 | 33 | 177 | 0.0 | 4.8 | 0.00 | 0.10 | 0.00 | 73 | 1014.7 |
| 20260904174547 | 33 | 101 | 0.0 | 3.2 | 0.00 | 0.10 | 0.00 | 75 | 1014.6 |
| 20260904174039 | 32 | 174 | 0.0 | 1.6 | 0.00 | 0.10 | 0.00 | 80 | 1014.6 |
| 20260904173541 | 32 | 128 | 0.0 | 1.6 | 0.00 | 0.10 | 0.00 | 80 | 1014.8 |
| 20260904173036 | 32 | 171 | 0.0 | 3.2 | 0.00 | 0.10 | 0.00 | 80 | 1014.9 |
| 20260904172537 | 32 | 306 | 0.0 | 3.2 | 0.00 | 0.10 | 0.00 | 78 | 1015.0 |
| 20260904172034 | 32 | 188 | 0.0 | 1.6 | 0.00 | 0.10 | 0.00 | 81 | 1015.0 |
| 20260904171542 | 32 | 139 | 0.0 | 1.6 | 0.00 | 0.10 | 0.00 | 80 | 1015.2 |
| 20260904171031 | 31 | 254 | 0.0 | 1.6 | 0.00 | 0.10 | 0.00 | 83 | 1015.2 |
| 20260904170531 | 31 | 278 | 0.0 | 0.0 | 0.00 | 0.10 | 0.00 | 82 | 1015.2 |
| 20260904170029 | 31 | 278 | 0.0 | 0.0 | 0.00 | 0.10 | 0.00 | 82 | 1015.4 |
| 20260904165531 | 31 | 278 | 0.0 | 1.6 | 0.00 | 0.18 | 0.00 | 81 | 1015.5 |
| 20260904165028 | 32 | 163 | 0.0 | 1.6 | 0.00 | 0.18 | 0.00 | 78 | 1015.6 |
| 20260904164527 | 32 | 91 | 0.0 | 0.0 | 0.00 | 0.18 | 0.00 | 79 | 1015.6 |
| 20260904164025 | 31 | 310 | 0.0 | 0.0 | 0.00 | 0.18 | 0.00 | 80 | 1015.7 |
| 20260904163524 | 31 | 301 | 0.0 | 0.0 | 0.00 | 0.18 | 0.00 | 80 | 1015.8 |
| 20260904163029 | 31 | 150 | 0.0 | 3.2 | 0.00 | 0.18 | 0.00 | 82 | 1015.8 |
| 20260904162524 | 31 | 120 | 0.0 | 0.0 | 0.00 | 0.18 | 0.00 | 83 | 1015.8 |
| 20260904162023 | 31 | 229 | 0.0 | 1.6 | 0.00 | 0.18 | 0.00 | 83 | 1015.9 |
| 20260904161527 | 31 | 255 | 0.0 | 0.0 | 0.00 | 0.18 | 0.00 | 81 | 1016.0 |
| 20260904161018 | 31 | 114 | 0.0 | 3.2 | 0.00 | 0.18 | 0.00 | 82 | 1016.0 |
| 20260904160517 | 31 | 134 | 0.0 | 3.2 | 0.00 | 0.18 | 0.00 | 82 | 1016.1 |
| 20260904160017 | 31 | 217 | 0.0 | 3.2 | 0.00 | 0.18 | 0.00 | 83 | 1016.2 |
| 20260904155515 | 30 | 130 | 0.0 | 3.2 | 0.00 | 0.58 | 0.00 | 83 | 1016.3 |
| 20260904155013 | 30 | 150 | 0.0 | 1.6 | 0.00 | 0.58 | 0.00 | 83 | 1016.3 |
| 20260904154512 | 30 | 189 | 0.0 | 1.6 | 0.00 | 0.58 | 0.00 | 84 | 1016.2 |
| 20260904154010 | 30 | 78 | 0.0 | 1.6 | 0.00 | 0.58 | 0.00 | 83 | 1016.2 |
| 20260904153510 | 30 | 327 | 0.0 | 0.0 | 0.00 | 0.58 | 0.00 | 84 | 1016.1 |
| 20260904153008 | 30 | 135 | 0.0 | 4.8 | 0.00 | 0.58 | 0.00 | 85 | 1016.0 |
| 20260904152507 | 30 | 130 | 0.0 | 4.8 | 0.00 | 0.58 | 0.00 | 84 | 1016.2 |
| 20260904152005 | 30 | 231 | 0.0 | 0.0 | 0.00 | 0.58 | 0.00 | 85 | 1016.2 |
| 20260904151505 | 30 | 257 | 0.0 | 0.0 | 0.00 | 0.58 | 0.00 | 85 | 1016.2 |
| 20260904151003 | 30 | 333 | 0.0 | 0.0 | 0.00 | 0.58 | 0.00 | 84 | 1016.0 |
| 20260904150502 | 29 | 97 | 0.0 | 0.0 | 0.00 | 0.58 | 0.00 | 86 | 1016.0 |
| 20260904150100 | 29 | 141 | 0.0 | 0.0 | 0.00 | 0.58 | 0.00 | 85 | 1015.9 |
| 20260904145556 | 29 | 103 | 0.0 | 1.6 | 0.00 | 0.66 | 0.00 | 86 | 1016.0 |
| 20260904145055 | 28 | 233 | 0.0 | 1.6 | 0.00 | 0.66 | 0.00 | 86 | 1015.9 |
| 20260904144555 | 28 | 229 | 0.0 | 1.6 | 0.00 | 0.66 | 0.00 | 88 | 1015.9 |
| 20260904144054 | 28 | 316 | 0.0 | 1.6 | 0.00 | 0.66 | 0.00 | 88 | 1015.9 |
| 20260904143552 | 28 | 203 | 0.0 | 1.6 | 0.00 | 0.66 | 0.00 | 88 | 1016.0 |
| 20260904143049 | 28 | 248 | 0.0 | 3.2 | 0.00 | 0.66 | 0.00 | 88 | 1015.9 |
| 20260904142551 | 28 | 278 | 0.0 | 3.2 | 0.00 | 0.66 | 0.00 | 88 | 1015.9 |
| 20260904142047 | 28 | 246 | 0.0 | 0.0 | 0.00 | 0.66 | 0.00 | 89 | 1015.8 |
| 20260904141545 | 27 | 246 | 0.0 | 0.0 | 0.00 | 0.66 | 0.00 | 89 | 1015.8 |
| 20260904141042 | 27 | 250 | 0.0 | 0.0 | 0.00 | 0.66 | 0.00 | 90 | 1015.8 |
| 20260904140541 | 27 | 122 | 0.0 | 3.2 | 0.00 | 0.66 | 0.00 | 91 | 1015.7 |
| 20260904140039 | 27 | 288 | 0.0 | 3.2 | 0.00 | 0.66 | 0.00 | 91 | 1015.7 |
| 20260904135637 | 27 | 138 | 0.0 | 1.6 | 0.00 | 0.66 | 0.00 | 93 | 1015.8 |
| 20260904135035 | 27 | 157 | 0.0 | 1.6 | 0.00 | 0.66 | 0.00 | 94 | 1015.7 |
| 20260904134535 | 26 | 232 | 0.0 | 1.6 | 0.00 | 0.66 | 0.00 | 95 | 1015.7 |
| 20260904134031 | 26 | 160 | 0.0 | 1.6 | 0.00 | 0.66 | 0.00 | 95 | 1015.7 |
| 20260904133531 | 26 | 134 | 0.0 | 1.6 | 0.00 | 0.66 | 0.00 | 95 | 1015.7 |
| 20260904133030 | 26 | 134 | 0.0 | 1.6 | 0.00 | 0.66 | 0.00 | 95 | 1015.6 |
| 20260904132529 | 26 | 122 | 0.0 | 1.6 | 0.00 | 0.66 | 0.00 | 96 | 1015.6 |
| 20260904132027 | 26 | 153 | 0.0 | 0.0 | 0.00 | 0.66 | 0.00 | 96 | 1015.7 |
| 20260904131527 | 26 | 314 | 0.0 | 0.0 | 0.00 | 0.66 | 0.00 | 96 | 1015.6 |
| 20260904131026 | 26 | 314 | 0.0 | 0.0 | 0.00 | 0.66 | 0.00 | 96 | 1015.7 |
| 20260904130532 | 26 | 259 | 0.0 | 0.0 | 0.00 | 0.66 | 0.00 | 96 | 1015.7 |
| 20260904130025 | 26 | 259 | 0.0 | 0.0 | 0.00 | 0.66 | 0.00 | 96 | 1015.7 |
| 20260904125525 | 26 | 259 | 0.0 | 0.0 | 0.00 | 0.66 | 0.00 | 96 | 1015.7 |
| 20260904125024 | 26 | 258 | 0.0 | 0.0 | 0.00 | 0.66 | 0.00 | 96 | 1015.7 |
| 20260904124522 | 26 | 259 | 0.0 | 0.0 | 0.00 | 0.66 | 0.00 | 96 | 1015.5 |
| 20260904124019 | 25 | 258 | 0.0 | 0.0 | 0.00 | 0.66 | 0.00 | 96 | 1015.5 |
| 20260904123517 | 25 | 259 | 0.0 | 0.0 | 0.00 | 0.66 | 0.00 | 96 | 1015.4 |
| 20260904123017 | 25 | 259 | 0.0 | 0.0 | 0.00 | 0.66 | 0.00 | 96 | 1015.4 |
| 20260904122516 | 25 | 259 | 0.0 | 0.0 | 0.00 | 0.66 | 0.00 | 96 | 1015.3 |
| 20260904122015 | 25 | 258 | 0.0 | 0.0 | 0.00 | 0.66 | 0.00 | 96 | 1015.3 |
| 20260904121513 | 25 | 259 | 0.0 | 0.0 | 0.00 | 0.66 | 0.00 | 96 | 1015.2 |
| 20260904121012 | 25 | 258 | 0.0 | 0.0 | 0.00 | 0.66 | 0.00 | 96 | 1015.3 |
| 20260904120509 | 25 | 258 | 0.0 | 0.0 | 0.00 | 0.66 | 0.00 | 96 | 1015.2 |
| 20260904120109 | 25 | 259 | 0.0 | 0.0 | 0.00 | 0.66 | 0.00 | 96 | 1015.1 |
| 20260904115509 | 25 | 259 | 0.0 | 0.0 | 0.00 | 0.66 | 0.00 | 96 | 1015.1 |
| 20260904115008 | 24 | 259 | 0.0 | 0.0 | 0.00 | 0.66 | 0.00 | 95 | 1015.0 |
| 20260904114507 | 24 | 258 | 0.0 | 0.0 | 0.00 | 0.66 | 0.00 | 95 | 1015.1 |
| 20260904114007 | 24 | 258 | 0.0 | 0.0 | 0.00 | 0.66 | 0.00 | 95 | 1015.0 |
| 20260904113505 | 24 | 258 | 0.0 | 0.0 | 0.00 | 0.66 | 0.00 | 95 | 1015.0 |
| 20260904113009 | 24 | 258 | 0.0 | 0.0 | 0.00 | 0.66 | 0.00 | 95 | 1014.9 |
| 20260904112503 | 24 | 258 | 0.0 | 0.0 | 0.00 | 0.66 | 0.00 | 95 | 1014.8 |
| 20260904112003 | 24 | 258 | 0.0 | 0.0 | 0.00 | 0.66 | 0.00 | 95 | 1014.8 |
| 20260904111505 | 24 | 258 | 0.0 | 0.0 | 0.00 | 0.66 | 0.00 | 95 | 1014.8 |
| 20260904111002 | 24 | 258 | 0.0 | 0.0 | 0.00 | 0.66 | 0.00 | 95 | 1014.8 |
| 20260904110502 | 24 | 258 | 0.0 | 0.0 | 0.00 | 0.66 | 0.00 | 95 | 1014.7 |
| 20260904110002 | 24 | 258 | 0.0 | 0.0 | 0.00 | 0.66 | 0.00 | 95 | 1014.7 |
| 20260904105503 | 24 | 258 | 0.0 | 0.0 | 0.00 | 0.66 | 0.00 | 95 | 1014.6 |
| 20260904105101 | 24 | 258 | 0.0 | 0.0 | 0.00 | 0.66 | 0.00 | 95 | 1014.7 |
| 20260904104606 | 24 | 258 | 0.0 | 0.0 | 0.00 | 0.66 | 0.00 | 95 | 1014.6 |
| 20260904104059 | 24 | 259 | 0.0 | 0.0 | 0.00 | 0.66 | 0.00 | 95 | 1014.6 |
| 20260904103557 | 24 | 258 | 0.0 | 0.0 | 0.00 | 0.66 | 0.00 | 95 | 1014.6 |
| 20260904103109 | 24 | 259 | 0.0 | 0.0 | 0.00 | 0.66 | 0.00 | 95 | 1014.5 |
| 20260904102557 | 24 | 259 | 0.0 | 0.0 | 0.00 | 0.66 | 0.00 | 95 | 1014.5 |
| 20260904102056 | 24 | 258 | 0.0 | 0.0 | 0.00 | 0.66 | 0.00 | 95 | 1014.5 |
| 20260904101556 | 24 | 258 | 0.0 | 0.0 | 0.00 | 0.66 | 0.00 | 95 | 1014.5 |
| 20260904101054 | 24 | 258 | 0.0 | 0.0 | 0.00 | 0.66 | 0.00 | 95 | 1014.4 |
| 20260904100554 | 24 | 259 | 0.0 | 0.0 | 0.00 | 0.66 | 0.00 | 95 | 1014.5 |
| 20260904100054 | 23 | 258 | 0.0 | 0.0 | 0.00 | 0.66 | 0.00 | 95 | 1014.4 |
| 20260904095553 | 24 | 258 | 0.0 | 0.0 | 0.00 | 0.66 | 0.00 | 95 | 1014.5 |
| 20260904095052 | 24 | 258 | 0.0 | 0.0 | 0.00 | 0.66 | 0.00 | 95 | 1014.4 |
| 20260904094552 | 24 | 258 | 0.0 | 0.0 | 0.00 | 0.66 | 0.00 | 95 | 1014.4 |
| 20260904094050 | 24 | 258 | 0.0 | 0.0 | 0.00 | 0.66 | 0.00 | 95 | 1014.2 |
| 20260904093550 | 24 | 258 | 0.0 | 0.0 | 0.00 | 0.66 | 0.00 | 95 | 1014.2 |
| 20260904093049 | 24 | 258 | 0.0 | 0.0 | 0.00 | 0.66 | 0.00 | 95 | 1014.2 |
| 20260904092548 | 24 | 259 | 0.0 | 0.0 | 0.00 | 0.66 | 0.00 | 95 | 1014.2 |
| 20260904092050 | 24 | 258 | 0.0 | 0.0 | 0.00 | 0.66 | 0.00 | 95 | 1014.1 |
| 20260904091603 | 24 | 258 | 0.0 | 0.0 | 0.00 | 0.66 | 0.00 | 95 | 1014.2 |
| 20260904091050 | 24 | 258 | 0.0 | 0.0 | 0.00 | 0.66 | 0.00 | 95 | 1014.1 |
| 20260904090546 | 24 | 259 | 0.0 | 0.0 | 0.00 | 0.66 | 0.00 | 95 | 1014.1 |
| 20260904090045 | 24 | 258 | 0.0 | 0.0 | 0.00 | 0.66 | 0.00 | 95 | 1014.1 |
| 20260904085544 | 24 | 258 | 0.0 | 0.0 | 0.00 | 0.66 | 0.00 | 95 | 1014.1 |
| 20260904085047 | 24 | 259 | 0.0 | 0.0 | 0.00 | 0.66 | 0.00 | 95 | 1014.1 |
| 20260904084544 | 24 | 259 | 0.0 | 0.0 | 0.00 | 0.66 | 0.00 | 95 | 1014.1 |
| 20260904084042 | 24 | 258 | 0.0 | 0.0 | 0.00 | 0.66 | 0.00 | 95 | 1014.1 |
| 20260904083542 | 24 | 259 | 0.0 | 0.0 | 0.00 | 0.66 | 0.00 | 95 | 1014.0 |
| 20260904083102 | 24 | 258 | 0.0 | 0.0 | 0.00 | 0.66 | 0.00 | 95 | 1014.0 |
| 20260904082540 | 24 | 259 | 0.0 | 0.0 | 0.00 | 0.66 | 0.00 | 95 | 1014.0 |
| 20260904082043 | 24 | 258 | 0.0 | 0.0 | 0.00 | 0.66 | 0.00 | 95 | 1014.0 |
| 20260904081539 | 24 | 258 | 0.0 | 0.0 | 0.00 | 0.66 | 0.00 | 95 | 1014.1 |
| 20260904081038 | 24 | 259 | 0.0 | 0.0 | 0.00 | 0.66 | 0.00 | 95 | 1014.1 |
| 20260904080538 | 24 | 258 | 0.0 | 0.0 | 0.00 | 0.66 | 0.00 | 95 | 1014.1 |
| 20260904080037 | 24 | 258 | 0.0 | 0.0 | 0.00 | 0.66 | 0.00 | 95 | 1014.1 |
| 20260904075538 | 24 | 258 | 0.0 | 0.0 | 0.00 | 0.66 | 0.00 | 95 | 1014.1 |
| 20260904075040 | 24 | 259 | 0.0 | 0.0 | 0.00 | 0.66 | 0.00 | 95 | 1014.1 |
| 20260904074558 | 24 | 258 | 0.0 | 0.0 | 0.00 | 0.66 | 0.00 | 95 | 1014.1 |
| 20260904074034 | 24 | 258 | 0.0 | 0.0 | 0.00 | 0.66 | 0.00 | 95 | 1014.0 |
| 20260904073534 | 24 | 258 | 0.0 | 0.0 | 0.00 | 0.66 | 0.00 | 95 | 1014.1 |
| 20260904073036 | 24 | 258 | 0.0 | 0.0 | 0.00 | 0.66 | 0.00 | 95 | 1014.1 |
| 20260904072533 | 24 | 258 | 0.0 | 0.0 | 0.00 | 0.66 | 0.00 | 95 | 1014.1 |
| 20260904072032 | 24 | 259 | 0.0 | 0.0 | 0.00 | 0.66 | 0.00 | 95 | 1014.1 |
| 20260904071531 | 24 | 258 | 0.0 | 0.0 | 0.00 | 0.66 | 0.00 | 95 | 1014.2 |
| 20260904071035 | 24 | 259 | 0.0 | 0.0 | 0.00 | 0.66 | 0.00 | 95 | 1014.0 |
| 20260904070530 | 24 | 258 | 0.0 | 0.0 | 0.00 | 0.66 | 0.00 | 95 | 1014.1 |
| 20260904070029 | 24 | 258 | 0.0 | 0.0 | 0.00 | 0.66 | 0.00 | 95 | 1014.1 |
| 20260904065533 | 24 | 259 | 0.0 | 0.0 | 0.00 | 0.66 | 0.00 | 95 | 1014.2 |
| 20260904065029 | 24 | 259 | 0.0 | 0.0 | 0.00 | 0.66 | 0.00 | 95 | 1014.2 |
| 20260904064534 | 24 | 258 | 0.0 | 0.0 | 0.00 | 0.66 | 0.00 | 95 | 1014.2 |
| 20260904064026 | 24 | 258 | 0.0 | 0.0 | 0.00 | 0.66 | 0.00 | 95 | 1014.1 |
| 20260904063526 | 24 | 258 | 0.0 | 0.0 | 0.00 | 0.66 | 0.00 | 95 | 1014.1 |
| 20260904063025 | 24 | 259 | 0.0 | 0.0 | 0.00 | 0.66 | 0.00 | 95 | 1014.2 |
| 20260904062528 | 24 | 258 | 0.0 | 0.0 | 0.00 | 0.66 | 0.00 | 95 | 1014.2 |
| 20260904062022 | 24 | 259 | 0.0 | 0.0 | 0.00 | 0.66 | 0.00 | 95 | 1014.2 |
| 20260904061527 | 24 | 259 | 0.0 | 0.0 | 0.00 | 0.66 | 0.00 | 95 | 1014.3 |
| 20260904061021 | 24 | 259 | 0.0 | 0.0 | 0.00 | 0.66 | 0.00 | 95 | 1014.3 |
| 20260904060520 | 24 | 259 | 0.0 | 0.0 | 0.00 | 0.66 | 0.00 | 95 | 1014.4 |
| 20260904060024 | 24 | 259 | 0.0 | 0.0 | 0.00 | 0.66 | 0.00 | 95 | 1014.5 |
| 20260904055516 | 24 | 258 | 0.0 | 0.0 | 0.00 | 0.66 | 0.00 | 94 | 1014.5 |
| 20260904055016 | 24 | 259 | 0.0 | 0.0 | 0.00 | 0.66 | 0.00 | 94 | 1014.5 |
| 20260904054516 | 24 | 259 | 0.0 | 0.0 | 0.00 | 0.66 | 0.00 | 94 | 1014.6 |
| 20260904054014 | 24 | 259 | 0.0 | 0.0 | 0.00 | 0.66 | 0.00 | 94 | 1014.7 |
| 20260904053515 | 25 | 259 | 0.0 | 0.0 | 0.00 | 0.66 | 0.00 | 95 | 1014.8 |
| 20260904053017 | 25 | 258 | 0.0 | 0.0 | 0.00 | 0.66 | 0.00 | 95 | 1014.7 |
| 20260904052510 | 25 | 259 | 0.0 | 0.0 | 0.00 | 0.66 | 0.00 | 95 | 1015.0 |
| 20260904052010 | 25 | 258 | 0.0 | 0.0 | 0.00 | 0.66 | 0.00 | 94 | 1015.0 |
| 20260904051510 | 25 | 258 | 0.0 | 0.0 | 0.00 | 0.66 | 0.00 | 94 | 1014.8 |
| 20260904051008 | 25 | 259 | 0.0 | 0.0 | 0.00 | 0.66 | 0.00 | 94 | 1014.9 |
| 20260904050506 | 25 | 259 | 0.0 | 0.0 | 0.00 | 0.66 | 0.00 | 94 | 1015.1 |
| 20260904050006 | 25 | 259 | 0.0 | 0.0 | 0.00 | 0.66 | 0.00 | 94 | 1015.1 |
| 20260904045505 | 25 | 258 | 0.0 | 0.0 | 0.00 | 0.66 | 0.00 | 94 | 1015.2 |
| 20260904045005 | 25 | 258 | 0.0 | 0.0 | 0.00 | 0.66 | 0.00 | 94 | 1015.2 |
| 20260904044503 | 25 | 258 | 0.0 | 0.0 | 0.00 | 0.66 | 0.00 | 94 | 1015.2 |
| 20260904044003 | 25 | 258 | 0.0 | 0.0 | 0.00 | 0.66 | 0.00 | 94 | 1015.2 |
| 20260904043501 | 25 | 258 | 0.0 | 0.0 | 0.00 | 0.66 | 0.00 | 94 | 1015.2 |
| 20260904043002 | 25 | 258 | 0.0 | 0.0 | 0.00 | 0.66 | 0.00 | 94 | 1015.2 |
| 20260904042603 | 25 | 258 | 0.0 | 0.0 | 0.00 | 0.66 | 0.00 | 94 | 1015.2 |
| 20260904042100 | 25 | 259 | 0.0 | 0.0 | 0.00 | 0.66 | 0.00 | 94 | 1015.1 |
| 20260904041605 | 25 | 258 | 0.0 | 0.0 | 0.00 | 0.66 | 0.00 | 94 | 1015.1 |
| 20260904041058 | 24 | 258 | 0.0 | 0.0 | 0.00 | 0.66 | 0.00 | 94 | 1015.2 |
| 20260904040555 | 24 | 258 | 0.0 | 0.0 | 0.00 | 0.66 | 0.00 | 94 | 1015.2 |
| 20260904040107 | 24 | 258 | 0.0 | 0.0 | 0.00 | 0.66 | 0.00 | 94 | 1015.2 |
| 20260904035554 | 25 | 258 | 0.0 | 0.0 | 0.00 | 0.66 | 0.66 | 94 | 1015.1 |
| 20260904035053 | 25 | 258 | 0.0 | 0.0 | 0.00 | 0.66 | 0.66 | 94 | 1015.2 |
| 20260904034556 | 24 | 258 | 0.0 | 0.0 | 0.00 | 0.66 | 0.66 | 94 | 1015.1 |
| 20260904034051 | 24 | 259 | 0.0 | 0.0 | 0.00 | 0.66 | 0.66 | 94 | 1015.1 |
| 20260904033550 | 25 | 259 | 0.0 | 0.0 | 0.00 | 0.66 | 0.66 | 94 | 1015.0 |
| 20260904033049 | 25 | 258 | 0.0 | 0.0 | 0.00 | 0.66 | 0.66 | 94 | 1014.9 |
| 20260904032552 | 25 | 258 | 0.0 | 0.0 | 0.00 | 0.66 | 0.66 | 94 | 1015.0 |
| 20260904032049 | 25 | 259 | 0.0 | 0.0 | 0.00 | 0.66 | 0.66 | 94 | 1015.1 |
| 20260904031550 | 25 | 258 | 0.0 | 0.0 | 0.00 | 0.66 | 0.66 | 94 | 1015.0 |
| 20260904031047 | 25 | 258 | 0.0 | 0.0 | 0.00 | 0.66 | 0.66 | 94 | 1015.1 |
| 20260904030548 | 25 | 259 | 0.0 | 0.0 | 0.00 | 0.66 | 0.66 | 93 | 1015.1 |
| 20260904030046 | 25 | 258 | 0.0 | 0.0 | 0.00 | 0.66 | 0.66 | 93 | 1015.1 |
| 20260904025546 | 25 | 259 | 0.0 | 0.0 | 0.00 | 0.66 | 0.66 | 93 | 1015.0 |
| 20260904025046 | 25 | 258 | 0.0 | 0.0 | 0.00 | 0.66 | 0.66 | 93 | 1015.1 |